CAPE
0 0 0 0 0 0 0 0 0 0 0 0 0 0 0 0 0 0 0 0 0 0 0 0 0 49 117 104 204 494 452 476 879 1336 896 954 1164 1215 1155 1802 1623 607 503 579 543 408 406 630 548 577 495 638 604 919 862 339 460 825 79 923 1179 1134 856 1790 1723 1802 1386 1416 1379 970 454 133 4 864 578 442 488 452 1486 2260 2604 2923 2820 3423 3716 3968
0 0 0 0 0 0 0 0 0 0 0 0 0 0 0 0 0 0 0 0 0 0 8 2 0 3 740 380 271 185 251 588 1096 912 1077 1072 962 1066 1448 1401 930 1287 462 410 569 408 406 430 531 415 436 718 594 900 813 480 453 498 0 733 1076 1228 1172 1827 1888 2134 1593 1754 1232 872 550 221 46 716 798 780 528 428 1515 3104 3026 2769 2827 3344 3884 4021
0 0 0 0 0 0 0 0 0 0 0 0 0 0 0 0 0 0 0 0 0 0 0 9 4 12 338 484 257 228 295 379 746 971 1580 1980 1619 1488 2031 1306 1667 834 978 466 482 536 396 654 545 445 450 420 541 584 757 739 586 798 71 1049 1204 1189 1460 1946 2076 2082 1848 1500 1183 656 488 286 226 381 373 367 286 574 1794 2331 2869 2615 3433 3354 3356 3398
0 0 0 0 0 0 0 0 0 0 0 0 0 0 0 0 0 0 0 0 0 0 0 0 2 2 208 209 547 439 456 603 1139 1501 1468 1836 2495 1629 1254 1271 1712 1235 942 550 573 430 398 477 410 796 705 833 536 928 993 620 673 618 258 1458 1367 1256 1607 1863 2176 1912 1416 1376 1345 1140 1108 498 325 490 698 783 660 596 1672 1947 2307 2947 3577 3013 2802 2680
0 0 0 0 0 0 0 0 0 0 0 0 0 0 0 0 0 0 0 0 0 0 0 0 0 0 20 290 498 359 244 630 926 1187 1119 1193 1382 1040 1111 1493 1309 1508 1309 710 517 600 400 438 488 810 865 594 595 709 896 783 551 530 542 1506 1498 1504 1815 1829 2169 1750 1374 1534 1424 1498 1627 986 1164 716 701 432 340 420 1637 1470 1970 2391 2968 3191 2662 2696
0 0 0 0 0 0 0 0 0 0 0 0 0 0 0 0 0 0 0 0 0 0 0 0 0 7 22 7 8 23 119 358 499 748 907 1000 1433 2039 2525 1089 1302 1437 1033 641 822 479 442 582 564 1009 992 761 818 961 987 1017 736 556 778 1428 1705 1582 2115 1645 2126 1768 1574 1724 1063 1308 1518 666 1307 605 641 473 528 59 548 724 1306 2078 2226 2376 2566 2840
0 0 0 0 0 0 0 0 0 0 0 0 0 0 0 0 0 0 0 0 0 0 0 0 0 0 0 0 27 28 83 179 247 636 949 1463 1435 1630 1566 1451 1009 931 1051 618 800 488 490 555 616 843 821 842 836 899 999 1109 958 1004 915 1457 1928 1612 1982 1759 1998 1717 1597 1670 1261 979 954 461 1433 910 553 809 313 301 493 621 1454 2298 2175 2958 2470 2231
0 0 0 0 0 0 0 0 0 0 0 0 0 0 0 0 0 0 0 0 0 0 0 0 0 0 0 0 0 242 108 153 436 579 1056 1385 1415 1327 1370 1282 1297 1470 1369 782 463 421 478 1000 770 819 941 925 888 932 984 1064 1152 1276 1241 1500 1758 1726 1883 1908 2134 1636 1508 1551 1407 1028 664 549 1204 656 1152 989 1443 1348 785 1055 1030 1523 1941 2688 2713 2391
0 0 0 0 0 0 0 0 0 0 0 0 0 0 0 0 0 0 0 0 0 0 0 0 0 0 0 0 0 24 204 122 343 901 797 1104 952 1336 1392 1433 1178 1082 1228 1243 903 682 650 847 674 830 970 1060 1010 985 1047 1053 1570 1502 1608 1702 1698 1725 1788 2143 2216 1672 1493 1598 1694 1252 1008 1087 1056 1220 1525 1121 1012 1223 1424 778 1586 1608 1806 2851 2820 2913
0 0 0 0 0 0 0 0 0 0 0 0 0 0 0 0 0 0 0 0 0 0 0 0 0 0 0 0 0 0 9 510 353 437 957 867 686 1249 1392 1206 980 903 1058 1101 1052 789 733 616 582 788 1006 1067 1084 1033 1113 1071 1208 1308 1715 1800 1638 1578 1575 2023 2241 1895 1583 1672 1994 1517 1190 1473 1044 1374 1513 1086 1032 1715 1357 1772 1275 2138 2610 2343 2654 2520
0 0 0 0 0 0 0 0 0 0 0 0 0 0 0 0 0 0 0 0 0 0 0 0 0 0 0 0 0 0 0 0 781 440 488 1099 880 1330 1276 1010 876 1127 1038 1256 1296 670 1086 1331 872 768 858 1127 1128 991 1016 1161 1326 1184 1389 2030 1589 1726 1411 1717 2265 1967 1593 1684 1890 1553 1404 1473 1259 1197 1475 1249 1442 1222 1516 1447 1346 1536 2815 2317 2425 2066
0 0 0 0 0 0 0 0 0 0 0 0 0 0 0 0 0 0 0 0 0 0 0 0 0 0 0 0 0 0 0 0 1 296 719 953 1940 1034 1216 1095 1041 971 889 1029 948 910 936 1272 964 878 970 1310 1438 1369 1038 910 1049 1367 1309 1862 1860 1990 1365 1348 2139 1963 1514 1571 1764 1541 1378 1188 1274 1080 820 1052 1450 817 1157 995 1652 1473 2634 2440 2614 2894
0 0 0 0 0 0 0 0 0 0 0 0 0 0 0 0 0 0 0 0 0 0 0 0 0 0 0 0 0 0 0 0 0 0 772 446 398 914 1009 1052 812 841 957 1085 1230 1333 1370 1242 1120 1467 1538 1803 1734 1364 1225 1245 974 985 1418 1935 2059 2181 1534 1290 1950 1799 1492 1406 1488 1442 1290 1008 1102 1020 789 894 1314 1014 1105 900 1306 2293 2406 2779 2722 2785
0 0 0 0 0 0 0 0 0 0 0 0 0 0 0 0 0 0 0 0 0 0 0 0 0 0 0 0 0 0 0 0 0 0 0 2113 872 843 948 677 808 1057 1493 1760 1788 1860 2008 1811 1890 2727 2158 2655 2165 1436 1498 1401 1187 1368 1162 1926 2108 2300 1864 1514 1779 1835 1661 1420 1398 1320 1218 883 961 960 688 847 670 1331 1268 1378 1110 985 1528 2509 2141 1952
0 0 0 0 0 0 0 0 0 0 0 0 0 0 0 0 0 0 0 0 0 0 0 0 0 0 0 0 0 0 0 0 0 0 0 0 279 745 658 449 772 1146 1470 1564 1621 1404 1271 1421 2139 2127 2384 2293 2211 1562 1033 966 1466 1607 1848 2304 2479 2460 2085 1773 2011 2143 1644 1270 1327 1350 1212 820 754 697 671 664 372 646 1511 1190 1233 1384 982 1528 1630 1684
0 0 0 0 0 0 0 0 0 0 0 0 0 0 0 0 0 0 0 0 0 0 0 0 0 0 0 0 0 0 0 0 0 0 0 0 4 1162 424 846 1277 1059 692 526 678 1091 1784 1997 2459 2076 1915 1747 1707 1742 1499 1321 1634 1767 2048 2611 2824 2651 2335 1892 2179 2242 1709 1231 1187 1370 1225 1062 808 754 559 610 622 775 1326 1720 1554 1864 1708 1141 1877 1829
0 0 0 0 0 0 0 0 0 0 0 0 0 0 0 0 0 0 0 0 0 0 0 0 0 0 0 0 0 0 0 0 0 0 0 0 0 664 993 663 972 1036 812 807 1265 1598 1690 1920 2350 2002 1858 1960 1913 1452 1272 1548 1745 1974 2230 2704 3072 2973 2617 2132 2304 2406 1818 1638 1197 1321 1307 1240 1109 751 517 462 536 153 587 1552 2057 2076 1642 1308 2033 1974
0 0 0 0 0 0 0 0 0 0 0 0 0 0 0 0 0 0 0 0 0 0 0 0 0 0 0 0 0 0 0 0 0 0 0 0 9 59 1696 894 985 982 986 846 1012 1460 1432 1927 1987 1414 1348 1374 1271 1405 1791 1933 2050 2181 2308 2549 2889 3131 3088 2388 2255 2042 2107 1761 1493 1493 1484 1361 1148 785 319 195 375 186 299 862 1892 1571 1724 1140 848 1372
0 0 0 0 0 0 0 0 1 0 0 0 0 0 0 0 0 0 0 0 0 0 0 0 0 0 0 0 0 0 0 0 0 0 0 0 0 7 1192 1066 1215 900 580 1005 1186 1060 1873 2095 1853 2246 2461 2189 2316 2247 2035 2029 2028 1884 2122 2069 2628 3210 2922 2719 2151 2269 2242 1864 1382 1530 1477 1198 1276 937 569 366 471 331 290 218 1192 1395 1322 1411 978 1130
0 0 0 0 0 0 0 0 0 0 0 0 0 0 0 0 0 2 0 0 0 0 0 0 0 0 0 0 5 2 0 0 0 0 0 0 0 0 4 609 1196 414 1445 1229 1333 1860 1869 1852 1996 1722 1674 1664 1764 1999 1888 1832 1895 1561 1724 2112 2619 3076 3172 2844 2514 2748 2529 1800 1801 1886 2007 1410 1320 1411 971 892 1105 763 556 735 763 1207 993 1588 1404 1325
0 0 0 0 0 0 0 0 0 0 0 0 0 0 0 0 0 0 0 0 0 0 0 0 0 0 0 0 2 13 1 0 0 0 0 0 0 0 0 0 76 360 1118 1032 1232 1197 1152 1212 975 1532 2186 1752 1996 2031 2158 1740 1654 1522 1570 1936 2603 3207 3078 3176 2760 2486 2678 2640 2356 2350 2405 2038 1793 1501 1640 1186 1325 1490 1234 1136 1252 1397 1357 1598 1643 1607
0 0 0 0 0 0 0 0 0 0 0 0 0 0 0 0 0 0 0 0 0 0 0 0 0 0 0 0 0 1 5 2 0 0 0 0 0 0 0 0 56 205 1567 1065 1031 982 820 850 1337 1469 1638 1632 1461 1577 2589 1818 1612 2154 1792 2034 2570 2868 2985 2932 2789 2896 2896 2804 2303 2062 2352 2094 1873 1972 1792 1319 1235 1487 1725 1619 1659 1773 1946 1723 1920 2006
0 0 0 0 0 0 0 0 0 0 0 0 0 0 0 0 0 2 3 0 0 0 0 0 0 0 5 9 44 1 1 6 8 0 0 0 0 0 0 0 5 210 629 1101 979 759 899 940 983 1536 1584 1552 1506 2388 1787 1803 1643 1473 1769 2114 2488 2797 3006 2998 2847 2859 3152 2877 2676 2700 2651 2314 2329 1980 1760 1357 1042 969 1104 1807 1802 1881 2176 1820 1541 2226
0 0 0 0 0 0 0 0 0 0 0 0 0 0 0 1 2 2 9 44 7 1 0 0 0 0 0 23 9 5 33 5 9 0 0 0 0 0 0 0 0 21 134 1951 1178 689 1597 1844 1980 1907 1700 1352 1428 1958 2005 1725 1600 1571 1777 2150 2480 2861 3114 3118 2939 2899 3035 2932 2543 2238 2839 2774 2710 2054 1719 1753 1297 1092 1056 1495 1432 1853 2066 1996 1746 1949
0 0 0 0 0 0 0 0 0 0 0 0 0 0 0 0 5 4 1 2 12 8 2 8 0 0 0 0 7 6 0 0 4 0 1 0 0 0 0 0 0 2 4 23 54 1154 1438 1592 1381 1598 1568 1622 1406 1644 1982 1860 1866 1675 1995 1908 2175 2502 3190 3110 2970 2944 2926 2784 2451 2243 2486 2352 2227 2111 1915 1815 1466 1361 1282 1512 1726 1745 1559 1704 1734 1863
0 0 0 0 0 0 0 0 0 0 0 1 0 0 0 0 3 8 0 4 0 3 16 93 10 0 0 53 14 24 9 13 11 4 4 0 0 175 156 74 0 83 0 0 127 1428 1573 1298 1131 1224 1579 1744 1467 1096 1882 1984 1621 1795 1695 1721 2120 2602 3137 3178 3051 2836 2884 2866 2500 2380 2526 2438 2396 2338 2215 1798 1602 1504 1486 1457 1797 1960 1869 1822 2086 1949
0 0 0 0 0 0 0 23 0 0 0 0 0 11 14 4 0 16 37 23 2 5 4 10 10 41 155 89 407 718 459 4 0 19 328 458 43 170 738 575 166 597 35 7 193 928 1160 1468 1287 1744 2221 1941 1450 1135 1280 1895 2212 1982 1813 1541 1622 2138 2918 3086 2947 3159 2836 2847 2442 2482 2544 2585 2108 2591 2338 2262 2003 1669 1783 1603 1864 1881 1940 2012 2215 1970
0 0 0 0 0 0 0 0 0 0 0 0 0 0 0 0 0 0 4 1 100 10 6 0 138 3 20 125 164 640 617 640 584 1484 361 1054 720 595 1186 1274 274 0 123 192 323 714 1784 1654 1565 2182 1881 1638 1398 1399 1832 2274 2374 1862 2220 2230 2214 2522 2755 2976 2909 3133 3252 3148 2893 2760 2535 2297 2582 2790 2738 2370 2084 2015 1944 1892 1625 2092 2357 2459 2387 1877
1 0 0 0 0 0 0 0 0 0 0 0 0 0 0 0 0 0 0 0 0 2 1 3 0 0 10 282 466 503 633 738 975 979 958 766 849 924 1147 1215 1120 1469 52 366 2160 3140 998 1934 1895 2189 2214 1931 1530 1550 1690 1640 1632 2379 2724 2562 2384 2410 2510 3175 3171 3011 3056 3283 3095 2912 2656 2872 2848 2784 2812 2544 2381 2236 2027 2038 2118 2139 2373 2686 2438 2278
3 0 0 0 0 0 0 0 0 0 3 5 0 0 0 0 0 15 13 0 0 0 0 3 1 0 1 248 468 546 465 653 667 786 846 955 674 602 701 997 1013 1320 1652 1476 1602 1743 2459 2978 2719 2859 2308 2081 1704 1909 1833 2164 2666 2835 2690 2686 2418 2649 2481 3261 3240 3190 3098 3092 3107 2993 2883 3039 2904 2860 2974 2924 2755 2534 2290 2225 2341 2285 2390 2730 2646 2565
0 0 0 0 0 0 0 0 0 0 0 0 0 0 0 0 0 0 22 4 2 0 0 0 1 0 731 393 443 376 262 318 601 557 740 731 681 542 437 624 616 681 761 803 838 1119 2121 2523 2146 1867 3204 2938 2494 2357 2105 2649 2852 2462 2231 2292 2349 2923 2572 3011 3272 3164 3132 3183 3109 3098 3097 3233 3118 2981 2958 3037 2995 2745 2613 2517 2536 2529 2594 2777 2764 2642
1 0 0 0 5 0 0 0 0 0 0 0 0 0 0 0 0 0 3 10 0 0 0 0 0 0 916 517 414 338 368 324 489 861 812 853 570 369 323 314 376 279 405 568 769 825 1296 1489 2325 2697 2378 2476 2650 2676 2485 2870 2783 2472 2058 2207 2278 2354 2337 2364 2978 2810 3042 3309 3326 3495 3382 3309 3327 3068 3034 3154 3180 3028 2842 2751 2744 2707 2742 2750 2742 2786
63 0 2 10 0 0 0 0 0 0 0 0 0 0 0 0 0 0 0 0 6 10 17 1 10 481 523 519 441 400 356 409 682 526 429 518 418 213 212 249 321 188 160 417 492 522 732 1214 1422 2110 2446 1838 1648 1492 1469 1642 1574 2092 2379 2501 2599 2292 2185 2247 2404 2945 3273 3276 3540 3731 3534 3455 3458 3271 3192 3253 3341 3304 3053 2976 3020 2942 2824 2738 2754 2954
125 43 4 11 21 24 0 0 2 9 6 1 0 0 0 0 0 0 0 0 0 13 26 28 18 242 166 284 292 290 219 296 231 519 149 51 41 109 95 98 192 170 90 120 164 150 343 512 902 1617 2172 2320 2568 2217 1640 1484 1164 2219 2039 2169 2696 2336 2504 2732 2768 2864 3418 3482 3777 3904 3740 3659 3613 3442 3371 3375 3520 3527 3250 3088 3075 3006 2840 2503 2564 3014
56 98 20 184 1 0 0 4 2 4 2 0 0 86 235 77 50 193 168 136 8 6 47 32 20 21 112 241 197 91 82 103 242 184 16 23 3 0 0 1 0 106 21 8 16 13 49 134 271 594 1964 2079 2488 2537 2544 1002 585 1496 2178 1574 1560 2643 3266 3274 3318 3311 3350 3645 3987 4175 4067 3936 3809 3738 3677 3599 3696 3706 3506 3208 3116 3115 2689 2280 2383 2915
18 17 53 116 50 20 2 83 25 3 2 0 0 432 306 149 215 126 66 3 13 110 243 35 74 8 94 38 119 68 28 52 111 241 162 126 68 0 0 0 0 0 0 0 0 0 3 2 44 191 530 1614 1919 1943 1910 2252 1146 1078 1202 1577 1558 2008 2738 3439 3884 3956 3488 3909 4165 4327 4284 4166 4022 4060 3976 3907 3823 3830 3706 3438 3312 3267 2905 2370 2126 2307
53 94 116 59 81 28 21 48 2 10 4 0 92 230 214 222 171 274 219 162 456 382 138 39 43 188 148 122 30 0 0 0 9 24 0 129 140 0 0 0 0 0 0 0 0 0 0 0 0 31 904 1125 1727 2111 2106 1719 1495 667 742 1569 1627 1740 2179 2904 4115 3890 3743 3952 4188 4344 4354 4123 4114 4198 4214 4169 4006 3943 3795 3623 3513 3400 3151 2784 2454 2438
34 159 198 36 12 2 8 3 29 28 8 70 40 180 115 128 197 146 79 168 228 0 6 36 28 0 0 0 0 0 0 6 1 2 0 0 2 0 0 0 0 0 0 0 0 0 0 0 0 4 73 340 1081 1967 2328 2485 1057 1043 1275 1438 1262 1604 2223 1970 3424 3978 3833 3783 4016 4200 4265 4211 4205 4360 4413 4333 4148 4102 3944 3836 3668 3396 3357 3133 2740 2351
74 96 221 34 28 41 7 18 25 9 40 198 266 78 39 72 195 153 142 181 162 72 41 0 0 0 0 0 0 0 35 45 29 0 4 0 4 22 0 0 0 0 0 0 0 0 0 0 0 238 667 1096 1193 1577 2208 2440 2695 882 1387 1901 1667 1482 1819 1950 3205 3931 3877 3679 3681 4054 4295 4348 4280 4411 4564 4494 4308 4015 3977 3778 3762 3442 3438 2974 2680 2675
31 233 188 104 3 15 58 11 64 48 4 157 112 56 90 80 23 268 188 80 114 129 132 0 0 0 0 0 1 7 10 26 32 2 0 0 3 13 5 0 0 0 0 0 0 0 0 0 16 465 787 1006 1295 2129 2381 2639 2682 2498 1658 1771 2031 1538 1535 2108 2758 3502 3818 3599 3647 4220 4564 4300 4523 4535 4534 4783 4562 4545 4673 4441 3824 3538 3220 3124 2905 2818
2 13 15 1 5 50 41 108 51 65 206 136 128 79 66 130 114 24 96 126 9 2 1 1 1 0 0 2 6 20 8 10 16 4 0 0 2 11 8 0 0 0 0 0 0 249 144 126 203 516 827 1007 1393 2142 2385 2601 3259 2746 2776 2318 2109 1904 1656 2708 2905 3402 3901 3811 3527 3937 4612 4512 4650 4641 4800 4817 4780 4434 4465 4306 4199 3853 3600 3156 2982 2921
5 31 46 36 6 1 21 119 61 157 194 98 95 24 97 54 33 8 14 0 12 23 2 0 0 0 0 1 5 18 10 0 0 3 0 0 0 5 3 0 0 0 0 125 203 272 348 380 30 528 744 859 1680 2178 2390 2495 3220 3173 3046 2801 2543 2492 2435 2789 3156 3492 4020 4066 3739 3809 4381 4458 4699 4737 4721 4865 4906 4649 4544 4588 4553 4365 4001 3332 3376 3344
3 5 21 10 37 30 0 46 3 46 94 18 54 45 79 120 42 6 1 0 0 2 1 0 0 0 0 0 0 0 2 6 3 7 0 0 0 0 0 0 0 60 72 210 269 302 381 197 157 582 807 903 1843 2260 2512 2653 3022 2704 3630 3301 2856 2667 2754 3313 3395 3836 4312 4344 4027 4180 4551 4631 4762 4577 4616 4787 4894 4662 4559 4562 4527 4515 4332 4058 3932 3834
0 9 0 2 8 7 8 2 5 28 2 8 7 40 56 29 1 3 1 2 3 1 2 1 0 0 0 0 0 1 0 0 0 0 0 0 0 0 0 0 51 185 278 399 501 594 464 440 578 738 818 1300 1777 2208 2581 2780 3678 3304 3944 3947 3434 2921 3221 3767 3848 4235 4541 4303 4203 4440 4518 4708 4631 4791 4682 4735 4730 4782 4690 4668 4554 4740 4670 4533 4296 3918
4 0 3 11 22 3 18 85 71 15 24 8 3 2 20 14 4 1 6 7 6 5 5 2 0 0 0 0 0 0 1 0 1 0 0 0 0 0 0 80 152 229 270 358 464 485 560 698 940 899 1108 1503 1914 2302 2754 3362 4401 4229 4719 4396 3876 3386 3876 4059 4088 4278 4543 4476 4329 4522 4558 4706 4737 4743 4637 4765 4752 4702 4782 4854 4676 4838 4930 4795 4547 4175
5 4 2 36 9 1 9 42 30 59 0 8 55 14 0 2 0 4 5 5 6 8 7 5 2 8 2 1 2 0 0 1 2 1 0 0 0 0 0 19 151 216 241 317 444 622 849 1044 1252 1208 1327 1654 2135 2610 2939 3909 4483 4441 4908 4804 4211 3872 4596 4423 4511 4348 4673 4561 4444 4642 4727 4820 4608 4773 4631 4610 4671 4825 4860 4857 4651 4704 4998 4734 4441 4336
6 0 2 10 4 0 4 6 0 4 5 0 10 7 10 7 7 8 7 7 8 8 9 5 4 4 3 4 4 4 1 2 2 2 2 2 0 0 0 0 145 226 315 372 483 768 937 1068 1316 1209 1376 1829 2226 2568 2811 3639 5051 5433 5337 4838 4376 4167 5115 4706 4764 4354 4650 4796 4590 4728 4793 4773 4451 4561 4576 4756 4576 4865 4883 4751 4586 4576 4759 4530 4225 4231
6 1 13 16 3 2 1 0 0 0 2 17 3 1 2 1 2 2 1 6 8 9 9 7 5 6 6 7 7 5 2 0 1 1 3 4 1 2 0 4 182 345 450 640 908 943 1023 1233 1462 1219 1407 1851 2309 2612 2839 3504 5375 5909 5438 4885 4246 4431 5280 4867 4676 4509 4745 4787 4691 4632 4768 4664 4304 4260 4371 4633 4460 4387 3907 4337 4414 4292 4494 4245 4093 4036
0 7 3 5 0 0 4 5 8 0 7 22 0 0 3 4 6 0 12 8 1 6 4 6 7 7 9 9 6 2 0 0 0 2 4 4 5 2 0 54 202 352 508 764 832 864 1082 1392 1347 1342 1757 2126 2486 2690 2902 3813 4728 5872 5169 4830 4315 4131 5348 4948 4440 4470 4641 4480 4187 4174 3989 4292 4182 4281 4328 4550 4263 3834 4918 4482 4398 4060 4008 3688 4164 3920
4 2 1 0 2 2 2 14 11 1 1 0 0 4 2 2 7 5 7 12 6 6 7 7 7 6 10 10 9 7 2 0 0 0 5 8 7 6 7 35 221 367 521 686 789 906 1236 1402 1144 1350 1711 2060 2381 2566 3020 3430 3593 3665 3576 3792 4050 4292 5160 5206 4710 4530 4504 4268 4018 3938 3919 3833 4037 4004 3691 3729 3708 3464 3481 3504 3724 3719 4683 4006 3899 3856
2 0 1 0 4 2 15 13 13 30 16 11 7 4 10 12 12 16 17 14 14 11 13 11 7 6 7 9 11 5 0 0 0 0 2 2 2 4 8 181 281 422 586 768 816 1086 1379 1291 1246 1479 1767 1950 2158 2350 2641 3008 3307 3520 3257 2997 2799 2616 2750 3696 4602 4512 4488 4221 4056 3576 3863 3971 4022 4073 4174 4082 3492 3430 3538 3539 3603 3549 3670 3625 3767 3779
Wind_Speed
nan nan nan nan nan nan nan nan nan nan nan nan nan nan nan nan nan nan nan nan nan nan nan nan nan nan 23 22 28 26 26 24 21 22 18 16 18 17 14 16 14 8 4 5 6 8 11 12 9 9 11 11 12 11 11 7 7 5 nan 5 6 7 7 9 7 7 6 5 4 4 3 2 nan 6 4 2 3 2 3 2 1 4 4 4 5 7
nan nan nan nan nan nan nan nan nan nan nan nan nan nan nan nan nan nan nan nan nan nan nan nan nan nan 37 29 25 24 24 21 22 20 18 17 17 17 14 15 16 12 3 4 6 7 11 12 13 10 9 11 13 11 12 7 8 6 nan 6 6 7 8 7 7 8 7 7 6 5 3 2 nan 4 5 5 4 2 4 3 4 7 6 6 5 6
nan nan nan nan nan nan nan nan nan nan nan nan nan nan nan nan nan nan nan nan nan nan nan nan nan nan 34 34 27 19 21 20 20 22 22 20 15 14 16 18 17 19 13 3 6 10 10 12 12 10 9 9 12 12 11 8 9 8 nan 7 7 7 8 7 7 7 8 6 5 3 3 1 2 3 3 4 4 4 4 4 6 9 8 8 7 7
nan nan nan nan nan nan nan nan nan nan nan nan nan nan nan nan nan nan nan nan nan nan nan nan nan nan 33 38 30 27 20 21 22 23 23 21 17 12 14 18 20 15 10 6 8 11 11 10 10 11 9 8 11 10 11 8 8 8 9 8 8 8 9 7 8 7 8 5 4 2 4 2 3 3 3 5 5 4 3 3 5 10 10 9 9 9
nan nan nan nan nan nan nan nan nan nan nan nan nan nan nan nan nan nan nan nan nan nan nan nan nan nan nan 31 28 25 24 25 25 24 22 22 19 16 14 18 18 11 10 4 7 9 11 11 12 12 11 10 10 10 9 8 8 8 9 10 9 9 10 9 9 7 7 5 4 4 5 5 6 5 6 6 5 6 4 4 6 8 10 11 12 10
nan nan nan nan nan nan nan nan nan nan nan nan nan nan nan nan nan nan nan nan nan nan nan nan nan nan nan nan nan nan 25 27 25 22 23 21 20 18 17 18 21 10 5 6 6 7 9 11 14 15 15 13 11 11 9 7 8 9 11 11 10 10 12 9 9 6 6 5 4 5 5 5 7 6 5 4 3 nan 4 4 4 6 8 10 12 11
nan nan nan nan nan nan nan nan nan nan nan nan nan nan nan nan nan nan nan nan nan nan nan nan nan nan nan nan nan nan nan 32 34 26 24 22 19 19 18 19 18 15 6 6 4 6 9 13 17 19 17 15 14 13 10 7 8 9 12 12 11 10 12 10 10 6 6 6 5 4 7 8 9 7 5 6 5 3 5 8 5 7 9 10 11 10
nan nan nan nan nan nan nan nan nan nan nan nan nan nan nan nan nan nan nan nan nan nan nan nan nan nan nan nan nan 36 35 37 39 31 28 24 19 20 20 18 14 14 10 6 7 8 8 12 16 20 19 16 15 16 12 9 8 9 13 13 11 12 12 11 10 6 6 6 6 6 8 8 9 6 6 4 7 5 5 9 6 8 9 9 12 12
nan nan nan nan nan nan nan nan nan nan nan nan nan nan nan nan nan nan nan nan nan nan nan nan nan nan nan nan nan nan 35 37 37 36 32 23 18 19 21 19 16 14 14 10 6 9 11 11 14 16 17 16 17 17 13 10 10 11 14 14 12 11 12 13 11 8 7 7 7 7 8 9 8 8 7 7 8 7 5 6 9 7 8 8 9 12
nan nan nan nan nan nan nan nan nan nan nan nan nan nan nan nan nan nan nan nan nan nan nan nan nan nan nan nan nan nan nan 31 37 37 35 28 19 17 18 17 15 16 14 11 8 10 11 11 13 13 15 15 15 15 13 12 11 11 14 13 12 11 12 13 12 9 8 7 8 7 8 9 7 9 8 8 8 9 8 7 9 10 9 8 9 10
nan nan nan nan nan nan nan nan nan nan nan nan nan nan nan nan nan nan nan nan nan nan nan nan nan nan nan nan nan nan nan nan 28 33 36 34 23 17 19 18 15 15 13 11 11 10 12 14 14 16 15 15 15 14 15 14 10 10 12 13 12 11 12 13 13 10 9 8 7 8 7 8 7 7 8 8 8 9 9 10 9 11 11 9 8 9
nan nan nan nan nan nan nan nan nan nan nan nan nan nan nan nan nan nan nan nan nan nan nan nan nan nan nan nan nan nan nan nan nan 23 41 43 34 28 22 21 16 16 17 14 12 12 12 15 15 14 16 18 18 17 16 15 11 10 12 13 12 12 11 12 13 11 10 8 7 8 7 7 7 7 9 9 9 7 9 9 9 9 10 11 10 10
nan nan nan nan nan nan nan nan nan nan nan nan nan nan nan nan nan nan nan nan nan nan nan nan nan nan nan nan nan nan nan nan nan nan 32 41 43 34 26 24 21 21 21 17 14 13 13 15 15 14 12 14 17 14 16 15 13 10 11 13 13 12 12 12 13 12 10 9 8 8 8 7 8 8 10 11 11 8 8 8 9 9 9 9 10 9
nan nan nan nan nan nan nan nan nan nan nan nan nan nan nan nan nan nan nan nan nan nan nan nan nan nan nan nan nan nan nan nan nan nan nan 37 39 38 30 26 24 22 23 20 16 16 14 14 16 16 13 14 14 16 15 13 12 8 9 12 12 12 13 13 13 12 11 9 10 10 9 8 8 9 10 12 11 10 9 8 9 9 9 9 9 9
nan nan nan nan nan nan nan nan nan nan nan nan nan nan nan nan nan nan nan nan nan nan nan nan nan nan nan nan nan nan nan nan nan nan nan nan 38 42 37 30 26 23 24 23 18 16 16 16 19 17 16 15 13 16 15 13 11 10 8 11 11 12 13 13 13 13 11 11 11 11 10 9 9 9 11 12 12 12 10 9 9 10 10 9 9 9
nan nan nan nan nan nan nan nan nan nan nan nan nan nan nan nan nan nan nan nan nan nan nan nan nan nan nan nan nan nan nan nan nan nan nan nan nan 40 41 36 27 25 25 24 20 17 17 19 20 18 17 15 12 14 13 11 9 10 10 11 11 11 13 13 13 12 12 12 13 13 12 10 9 10 11 13 14 13 13 12 11 10 11 10 9 7
nan nan nan nan nan nan nan nan nan nan nan nan nan nan nan nan nan nan nan nan nan nan nan nan nan nan nan nan nan nan nan nan nan nan nan nan nan 37 46 41 30 26 25 23 23 19 17 19 19 17 17 16 13 13 15 13 10 10 10 12 12 10 11 12 12 13 13 14 14 13 13 12 10 9 10 11 11 10 13 14 13 12 10 11 10 7
nan nan nan nan nan nan nan nan nan nan nan nan nan nan nan nan nan nan nan nan nan nan nan nan nan nan nan nan nan nan nan nan nan nan nan nan nan nan 38 38 32 26 25 23 20 21 20 21 20 16 15 16 14 12 12 12 9 8 10 14 13 12 11 11 13 13 14 15 15 15 14 13 11 10 9 10 11 12 14 14 14 13 12 10 10 9
nan nan nan nan nan nan nan nan nan nan nan nan nan nan nan nan nan nan nan nan nan nan nan nan nan nan nan nan nan nan nan nan nan nan nan nan nan nan 30 37 36 30 29 26 23 24 25 24 21 17 18 19 18 13 13 13 10 8 11 13 15 14 12 13 14 13 15 15 16 16 15 14 13 11 11 11 13 13 13 11 12 12 13 11 10 10
nan nan nan nan nan nan nan nan nan nan nan nan nan nan nan nan nan nan nan nan nan nan nan nan nan nan nan nan nan nan nan nan nan nan nan nan nan nan nan 30 38 33 36 33 29 29 30 26 20 19 18 19 19 16 13 14 10 9 13 12 14 13 11 13 14 14 14 14 16 17 17 16 15 14 12 12 14 13 12 13 13 12 10 12 11 9
nan nan nan nan nan nan nan nan nan nan nan nan nan nan nan nan nan nan nan nan nan nan nan nan nan nan nan nan nan nan nan nan nan nan nan nan nan nan nan nan nan 36 38 34 30 29 29 26 21 21 21 19 20 18 15 16 15 4 8 12 15 15 15 14 13 14 15 16 16 18 17 16 16 14 13 11 12 13 13 15 14 14 13 14 12 11
nan nan nan nan nan nan nan nan nan nan nan nan nan nan nan nan nan nan nan nan nan nan nan nan nan nan nan nan nan nan nan nan nan nan nan nan nan nan nan nan nan 34 39 38 35 28 24 23 22 22 22 23 21 19 19 19 19 11 4 10 12 14 14 14 12 13 15 16 17 17 19 17 17 16 15 11 11 12 14 14 15 15 15 12 13 11
nan nan nan nan nan nan nan nan nan nan nan nan nan nan nan nan nan nan nan nan nan nan nan nan nan nan nan nan nan nan nan nan nan nan nan nan nan nan nan nan nan 26 33 39 39 32 24 21 22 22 21 20 21 23 16 15 17 19 8 7 10 13 15 13 12 12 15 16 17 18 20 20 19 18 15 11 11 10 11 13 14 15 14 13 13 13
nan nan nan nan nan nan nan nan nan nan nan nan nan nan nan nan nan nan nan nan nan nan nan nan nan nan nan nan nan nan nan nan nan nan nan nan nan nan nan nan nan nan 28 35 34 33 27 22 25 26 24 21 18 21 18 14 15 16 15 9 9 14 15 13 11 11 13 15 16 18 21 22 21 19 17 13 12 11 12 13 13 15 13 13 13 12
nan nan nan nan nan nan nan nan nan nan nan nan nan nan nan nan nan nan nan nan nan nan nan nan nan nan nan nan nan nan nan nan nan nan nan nan nan nan nan nan nan nan nan nan nan 38 30 27 27 27 26 23 20 21 18 16 16 15 16 17 10 12 13 12 10 11 13 14 16 18 20 21 21 20 18 16 13 12 13 14 15 16 13 13 12 12
nan nan nan nan nan nan nan nan nan nan nan nan nan nan nan nan nan nan nan nan nan nan nan nan nan nan nan nan nan nan nan nan nan nan nan nan nan 13 21 nan nan nan nan nan 37 44 38 29 24 24 26 23 20 19 20 18 17 14 16 17 11 8 11 12 11 12 13 14 15 17 19 20 21 20 19 18 16 14 15 15 16 16 15 13 13 14
nan nan nan nan nan nan nan nan nan nan nan nan nan nan nan nan nan nan nan nan nan nan nan nan nan nan 22 nan 51 49 29 nan nan nan 32 25 nan 22 32 36 33 30 nan nan 32 40 36 33 25 24 25 25 22 20 20 19 18 18 18 20 17 12 12 12 12 11 14 15 15 16 18 19 19 20 19 20 18 18 18 17 16 16 15 15 14 14
nan nan nan nan nan nan nan nan nan nan nan nan nan nan nan nan nan nan nan nan nan nan nan nan 43 nan nan 37 41 49 56 43 40 47 38 40 42 44 46 49 39 nan 27 30 31 35 38 34 30 25 23 24 22 19 19 20 21 19 20 21 21 16 14 14 13 13 14 15 14 14 16 17 19 20 20 21 21 21 20 19 18 18 18 18 15 14
nan nan nan nan nan nan nan nan nan nan nan nan nan nan nan nan nan nan nan nan nan nan nan nan nan nan nan 47 47 50 53 50 49 57 56 53 50 47 43 43 54 53 nan 40 45 41 34 30 30 26 24 22 21 20 20 21 19 21 22 22 22 17 16 17 15 14 16 15 14 14 14 16 18 20 21 22 22 22 21 21 21 21 21 20 17 16
nan nan nan nan nan nan nan nan nan nan nan nan nan nan nan nan nan nan nan nan nan nan nan nan nan nan nan 53 56 50 47 54 54 57 55 54 53 51 44 44 51 54 59 61 59 56 53 46 31 27 24 23 21 21 22 24 25 24 23 24 22 20 18 20 18 16 15 16 14 14 15 15 17 19 21 22 22 22 22 22 23 22 21 21 19 18
nan nan nan nan nan nan nan nan nan nan nan nan nan nan nan nan nan nan nan nan nan nan nan nan nan nan 47 52 60 55 52 56 56 56 52 47 49 52 48 46 48 54 58 58 56 56 54 56 55 48 41 31 27 26 27 29 29 27 23 23 21 20 20 22 19 17 15 15 15 15 15 15 16 17 19 21 22 22 22 22 24 24 22 22 21 19
nan nan nan nan nan nan nan nan nan nan nan nan nan nan nan nan nan nan nan nan nan nan nan nan nan nan 54 61 61 63 61 59 59 57 51 45 48 48 50 50 52 54 56 55 52 51 52 55 55 51 48 50 54 53 42 37 32 28 24 23 20 20 20 20 20 17 15 15 16 16 16 15 16 16 17 19 20 22 22 22 24 24 23 22 22 21
nan nan nan nan nan nan nan nan nan nan nan nan nan nan nan nan nan nan nan nan nan nan nan nan nan 53 60 67 67 65 61 61 61 58 56 54 51 52 52 53 54 55 55 54 53 51 52 54 54 51 48 42 41 40 36 37 32 28 25 23 23 23 21 20 19 18 16 16 16 16 16 16 16 16 17 17 18 20 21 21 22 24 24 22 24 24
18 nan nan nan nan nan nan nan nan nan nan nan nan nan nan nan nan nan nan nan nan nan nan nan nan 53 58 65 69 65 64 59 56 55 60 nan nan 57 nan nan 56 56 nan 56 55 53 53 53 53 52 50 47 39 33 32 28 25 30 27 25 26 24 23 22 20 20 18 16 15 15 16 16 17 17 17 17 17 19 20 20 20 22 24 24 25 24
nan nan nan 25 nan nan nan nan nan nan nan nan nan nan 67 nan nan 59 58 53 nan nan nan nan nan nan 49 63 68 nan nan 60 60 54 nan nan nan nan nan nan nan 57 nan nan nan nan nan 53 53 52 50 49 47 43 41 34 29 32 33 30 25 25 26 24 24 22 20 17 15 15 15 15 16 16 17 17 16 17 18 19 19 20 23 24 24 25
nan nan nan 19 nan nan nan nan nan nan nan nan nan 74 72 65 69 63 nan nan nan 69 83 nan nan nan nan nan 72 nan nan nan 56 59 60 60 nan nan nan nan nan nan nan nan nan nan nan nan nan 50 48 47 46 41 37 37 33 31 32 29 25 23 24 25 25 23 21 18 15 13 14 15 15 16 17 17 16 15 16 18 18 19 21 23 23 24
nan nan 21 nan nan nan nan nan nan nan nan nan nan 68 70 69 70 65 56 56 79 84 81 nan nan 81 78 82 nan nan nan nan nan nan nan 63 60 nan nan nan nan nan nan nan nan nan nan nan nan nan 48 45 45 45 40 34 30 26 24 26 22 23 22 23 25 23 21 19 16 14 13 14 15 16 17 17 15 14 15 17 18 18 19 21 23 24
nan 20 27 nan nan nan nan nan nan nan nan nan nan 55 64 67 67 63 nan 53 78 nan nan nan nan nan nan nan nan nan nan nan nan nan nan nan nan nan nan nan nan nan nan nan nan nan nan nan nan nan nan 43 42 40 37 33 31 29 25 26 21 18 21 20 19 21 20 19 18 16 14 15 15 15 16 16 15 14 15 17 18 18 18 19 20 21
nan nan 25 nan nan nan nan nan nan nan nan 47 47 nan nan nan 67 66 60 53 68 nan nan nan nan nan nan nan nan nan nan nan nan nan nan nan nan nan nan nan nan nan nan nan nan nan nan nan nan 45 43 40 38 37 34 30 29 25 23 24 19 18 20 18 19 21 20 18 19 19 17 16 16 15 16 15 14 14 15 16 18 18 19 17 17 19
nan 19 25 28 nan nan nan nan nan nan nan 45 46 nan nan nan nan 60 59 nan 68 73 78 nan nan nan nan nan nan nan nan nan nan nan nan nan nan nan nan nan nan nan nan nan nan nan nan nan nan 48 46 43 40 39 38 34 28 24 22 22 21 19 19 18 18 20 18 18 20 21 21 18 17 16 16 15 14 15 16 18 18 18 19 18 18 19
nan nan nan nan nan nan nan 18 nan nan 44 49 49 nan nan 44 48 nan nan 61 nan nan nan nan nan nan nan nan nan nan nan nan nan nan nan nan nan nan nan nan nan nan nan nan nan 57 55 54 51 49 48 43 41 40 38 36 31 28 27 25 24 20 19 21 22 22 22 21 20 21 22 20 18 17 17 16 16 16 16 17 17 19 20 19 18 19
nan nan nan nan nan nan nan 17 nan 33 40 nan nan nan nan nan nan nan nan nan nan nan nan nan nan nan nan nan nan nan nan nan nan nan nan nan nan nan nan nan nan nan nan 55 57 58 57 55 nan 53 51 47 44 42 40 39 33 31 30 28 25 21 22 28 29 26 24 22 21 21 22 22 20 19 19 18 17 16 16 17 17 19 21 20 21 20
nan nan nan nan nan nan nan nan nan nan nan nan nan nan nan 41 nan nan nan nan nan nan nan nan nan nan nan nan nan nan nan nan nan nan nan nan nan nan nan nan nan nan nan 57 59 60 59 56 55 54 52 49 48 45 43 42 36 32 33 29 25 24 28 34 33 29 26 24 23 23 23 23 23 21 21 21 18 17 16 17 17 19 21 21 22 21
nan nan nan nan nan nan nan nan nan nan nan nan nan nan nan nan nan nan nan nan nan nan nan nan nan nan nan nan nan nan nan nan nan nan nan nan nan nan nan nan nan 59 57 57 57 56 58 56 55 54 53 51 49 47 45 41 38 35 35 30 29 31 36 38 36 33 29 25 23 25 25 25 24 23 22 23 22 19 18 18 18 19 21 22 23 22
nan nan nan nan nan nan nan nan nan nan nan nan nan nan nan nan nan nan nan nan nan nan nan nan nan nan nan nan nan nan nan nan nan nan nan nan nan nan nan nan 60 61 60 59 57 56 55 54 54 53 53 51 51 49 46 43 40 38 35 34 35 38 40 39 38 37 32 26 24 26 27 27 26 24 23 24 24 22 20 20 20 19 20 22 22 21
nan nan nan nan nan nan nan nan nan nan nan nan nan nan nan nan nan nan nan nan nan nan nan nan nan nan nan nan nan nan nan nan nan nan nan nan nan nan nan nan 58 60 61 59 57 57 56 54 52 51 51 51 51 49 46 45 43 37 37 39 40 41 42 41 40 38 34 29 26 26 28 28 27 26 24 25 26 24 22 22 22 20 21 21 20 20
nan nan nan nan nan nan nan nan nan nan nan nan nan nan nan nan nan nan nan nan nan nan nan nan nan nan nan nan nan nan nan nan nan nan nan nan nan nan nan nan 59 58 59 59 57 56 55 53 51 50 50 50 50 49 47 47 45 40 41 41 42 42 44 43 42 39 36 32 28 27 28 28 28 27 26 27 28 27 25 23 22 21 20 20 19 18
nan nan nan nan nan nan nan nan nan nan nan nan nan nan nan nan nan nan nan nan nan nan nan nan nan nan nan nan nan nan nan nan nan nan nan nan nan nan nan nan 65 59 56 55 55 54 52 50 48 48 48 48 47 46 44 45 47 42 43 41 41 42 46 45 42 39 38 36 31 28 28 29 29 28 27 28 29 26 23 23 21 20 20 19 19 18
nan nan nan nan nan nan nan nan nan nan nan nan nan nan nan nan nan nan nan nan nan nan nan nan nan nan nan nan nan nan nan nan nan nan nan nan nan nan nan nan 65 60 56 56 57 55 51 49 48 47 47 46 46 44 42 44 49 44 39 40 40 42 46 45 42 39 39 38 34 29 30 30 31 28 28 30 27 26 25 22 20 20 19 18 19 18
nan nan nan nan nan nan nan nan nan nan nan nan nan nan nan nan nan nan nan nan nan nan nan nan nan nan nan nan nan nan nan nan nan nan nan nan nan nan nan nan 59 59 56 55 54 53 50 47 45 45 46 45 44 44 43 46 47 48 47 44 42 43 46 47 43 40 41 40 36 32 32 31 30 29 28 29 29 34 34 37 39 32 22 21 30 29
nan nan nan nan nan nan nan nan nan nan nan nan nan nan nan nan nan nan nan nan nan nan nan nan nan nan nan nan nan nan nan nan nan nan nan nan nan nan nan 55 55 58 58 56 56 56 53 51 49 48 47 45 46 47 49 48 49 50 49 50 52 56 57 52 47 44 43 43 39 34 34 32 31 30 30 30 32 32 34 33 36 41 41 38 34 35
Wind_Direction
nan nan nan nan nan nan nan nan nan nan nan nan nan nan nan nan nan nan nan nan nan nan nan nan nan nan 274 273 278 282 278 281 286 290 292 292 281 272 256 225 219 273 297 300 326 334 324 325 324 317 313 310 305 286 291 306 288 262 nan 258 257 223 209 201 197 193 195 216 197 205 224 236 nan 137 174 163 170 192 250 293 199 136 151 159 141 125
nan nan nan nan nan nan nan nan nan nan nan nan nan nan nan nan nan nan nan nan nan nan nan nan nan nan 270 259 264 277 282 282 288 290 292 298 289 274 258 237 219 199 247 308 316 342 333 318 333 324 308 318 310 285 295 306 288 255 nan 268 249 216 214 208 208 203 199 210 200 217 216 237 nan 154 172 165 174 169 242 197 185 141 155 148 144 131
nan nan nan nan nan nan nan nan nan nan nan nan nan nan nan nan nan nan nan nan nan nan nan nan nan nan 284 278 269 274 273 276 284 284 282 279 282 265 257 258 230 199 164 295 338 347 335 330 332 310 309 314 309 300 295 297 282 260 nan 242 234 211 216 216 225 215 208 212 206 214 205 204 207 163 180 173 172 185 233 196 162 143 155 144 143 132
nan nan nan nan nan nan nan nan nan nan nan nan nan nan nan nan nan nan nan nan nan nan nan nan nan nan 295 285 280 274 274 271 289 291 289 282 276 264 279 272 241 200 138 45 354 347 332 326 321 306 309 301 300 290 287 300 288 260 253 236 238 214 219 215 229 224 222 212 206 188 172 198 215 188 201 195 178 171 221 170 149 149 156 142 138 131
nan nan nan nan nan nan nan nan nan nan nan nan nan nan nan nan nan nan nan nan nan nan nan nan nan nan nan 288 282 289 296 290 288 290 288 288 289 283 271 272 255 232 130 72 341 346 324 323 320 305 302 308 303 296 288 291 289 255 268 245 244 218 224 218 235 232 230 216 183 168 168 166 227 216 206 201 190 153 206 160 152 146 145 136 135 134
nan nan nan nan nan nan nan nan nan nan nan nan nan nan nan nan nan nan nan nan nan nan nan nan nan nan nan nan nan nan 290 291 287 289 294 289 294 283 269 286 272 258 6 51 352 331 318 319 311 303 307 321 311 296 278 276 281 262 258 249 245 222 225 230 242 237 233 212 194 172 186 168 215 229 218 197 183 nan 157 132 143 144 129 130 132 139
nan nan nan nan nan nan nan nan nan nan nan nan nan nan nan nan nan nan nan nan nan nan nan nan nan nan nan nan nan nan nan 299 291 298 293 288 284 283 274 267 287 311 326 344 318 315 337 329 321 315 316 323 319 305 285 267 267 261 259 250 251 235 227 235 242 245 231 218 198 187 191 191 200 219 201 181 155 161 154 149 177 164 142 141 132 133
nan nan nan nan nan nan nan nan nan nan nan nan nan nan nan nan nan nan nan nan nan nan nan nan nan nan nan nan nan 288 293 290 287 290 290 283 284 286 287 290 286 290 302 300 340 344 344 334 322 321 320 321 321 311 302 282 263 257 257 254 251 238 234 235 244 244 234 220 214 207 203 208 196 207 197 167 153 171 179 151 180 164 154 152 141 141
nan nan nan nan nan nan nan nan nan nan nan nan nan nan nan nan nan nan nan nan nan nan nan nan nan nan nan nan nan nan 287 290 289 288 287 286 293 285 288 291 300 305 307 316 333 342 337 325 324 315 314 321 320 315 314 291 258 246 253 255 249 245 241 241 256 246 235 224 216 213 218 216 198 198 187 170 160 165 178 156 167 171 160 160 145 141
nan nan nan nan nan nan nan nan nan nan nan nan nan nan nan nan nan nan nan nan nan nan nan nan nan nan nan nan nan nan nan 286 291 295 288 284 291 281 278 287 305 306 304 316 335 342 329 310 305 304 310 320 318 315 312 303 279 259 251 261 258 252 242 246 260 248 246 239 221 219 221 227 208 195 186 175 166 166 172 180 165 167 170 163 147 138
nan nan nan nan nan nan nan nan nan nan nan nan nan nan nan nan nan nan nan nan nan nan nan nan nan nan nan nan nan nan nan nan 289 292 289 288 296 290 298 308 306 296 301 315 331 324 316 303 303 316 327 325 321 311 322 327 306 282 266 266 267 254 243 249 260 256 259 246 229 226 227 233 225 196 190 189 181 171 179 173 175 163 165 164 149 135
nan nan nan nan nan nan nan nan nan nan nan nan nan nan nan nan nan nan nan nan nan nan nan nan nan nan nan nan nan nan nan nan nan 291 294 300 302 308 301 304 309 312 312 316 321 313 301 292 302 317 329 329 324 324 332 336 328 300 271 270 273 258 252 249 258 261 260 247 245 235 234 234 225 203 191 192 192 183 175 171 170 164 163 161 158 144
nan nan nan nan nan nan nan nan nan nan nan nan nan nan nan nan nan nan nan nan nan nan nan nan nan nan nan nan nan nan nan nan nan nan 285 304 306 300 302 308 304 304 306 307 298 290 290 292 305 319 311 309 314 323 333 344 352 328 289 283 282 274 265 254 259 266 262 252 250 245 243 231 221 211 197 196 193 191 175 171 166 166 159 161 149 141
nan nan nan nan nan nan nan nan nan nan nan nan nan nan nan nan nan nan nan nan nan nan nan nan nan nan nan nan nan nan nan nan nan nan nan 302 301 300 301 302 297 297 298 295 290 288 293 301 290 275 293 287 304 328 318 339 358 344 316 292 292 282 272 257 258 265 264 261 251 247 243 232 223 216 207 202 193 191 179 177 166 159 157 154 143 138
nan nan nan nan nan nan nan nan nan nan nan nan nan nan nan nan nan nan nan nan nan nan nan nan nan nan nan nan nan nan nan nan nan nan nan nan 281 295 300 298 305 302 292 284 287 293 295 294 281 276 273 276 285 311 327 341 360 351 332 301 294 283 278 271 268 260 269 258 253 247 244 236 224 220 216 209 200 190 185 178 171 164 160 157 152 142
nan nan nan nan nan nan nan nan nan nan nan nan nan nan nan nan nan nan nan nan nan nan nan nan nan nan nan nan nan nan nan nan nan nan nan nan nan 284 285 292 298 293 285 287 293 295 291 283 273 275 279 286 300 311 316 338 359 4 344 317 304 291 284 281 272 261 265 260 251 251 249 246 236 225 224 216 208 197 190 187 181 175 169 168 173 166
nan nan nan nan nan nan nan nan nan nan nan nan nan nan nan nan nan nan nan nan nan nan nan nan nan nan nan nan nan nan nan nan nan nan nan nan nan 283 281 280 287 287 288 289 291 288 284 277 277 279 282 286 299 319 328 331 356 11 348 326 314 288 280 283 278 270 262 257 254 255 253 248 242 241 238 230 227 214 199 193 191 188 178 175 186 201
nan nan nan nan nan nan nan nan nan nan nan nan nan nan nan nan nan nan nan nan nan nan nan nan nan nan nan nan nan nan nan nan nan nan nan nan nan nan 276 280 279 288 295 301 294 287 287 280 281 286 291 302 316 328 319 307 328 11 359 342 330 311 295 282 279 273 262 261 258 255 257 253 249 245 245 239 235 225 212 204 199 196 196 190 188 197
nan nan nan nan nan nan nan nan nan nan nan nan nan nan nan nan nan nan nan nan nan nan nan nan nan nan nan nan nan nan nan nan nan nan nan nan nan nan 274 292 291 289 283 284 290 283 285 281 284 287 291 294 291 294 289 298 323 12 16 359 347 336 312 290 274 265 249 257 250 250 258 261 253 242 239 236 237 233 226 221 215 206 205 208 205 200
nan nan nan nan nan nan nan nan nan nan nan nan nan nan nan nan nan nan nan nan nan nan nan nan nan nan nan nan nan nan nan nan nan nan nan nan nan nan nan 294 288 280 270 279 279 281 286 289 292 300 303 304 300 294 287 289 291 9 34 11 355 343 311 288 282 271 265 266 257 255 255 257 252 247 240 239 241 241 237 234 229 224 217 218 219 214
nan nan nan nan nan nan nan nan nan nan nan nan nan nan nan nan nan nan nan nan nan nan nan nan nan nan nan nan nan nan nan nan nan nan nan nan nan nan nan nan nan 275 275 280 279 277 283 284 297 300 296 297 288 282 278 277 274 308 62 33 3 352 344 325 303 289 272 263 260 261 264 265 259 261 248 247 244 243 242 239 237 236 229 227 226 228
nan nan nan nan nan nan nan nan nan nan nan nan nan nan nan nan nan nan nan nan nan nan nan nan nan nan nan nan nan nan nan nan nan nan nan nan nan nan nan nan nan 276 269 276 278 280 279 282 286 285 283 273 280 275 272 277 277 269 27 52 23 2 354 340 316 290 278 270 266 271 269 269 264 260 251 256 246 244 246 244 244 242 243 240 239 237
nan nan nan nan nan nan nan nan nan nan nan nan nan nan nan nan nan nan nan nan nan nan nan nan nan nan nan nan nan nan nan nan nan nan nan nan nan nan nan nan nan 255 271 278 280 276 277 278 276 280 279 283 278 265 278 276 284 295 319 59 47 14 2 350 333 303 276 272 270 272 270 267 263 262 265 269 255 264 259 253 250 249 251 253 249 249
nan nan nan nan nan nan nan nan nan nan nan nan nan nan nan nan nan nan nan nan nan nan nan nan nan nan nan nan nan nan nan nan nan nan nan nan nan nan nan nan nan nan 250 271 273 272 264 266 274 273 272 266 266 267 274 274 278 293 311 330 32 22 6 353 337 311 289 281 283 283 275 270 267 275 274 272 260 268 268 260 258 254 255 258 256 257
nan nan nan nan nan nan nan nan nan nan nan nan nan nan nan nan nan nan nan nan nan nan nan nan nan nan nan nan nan nan nan nan nan nan nan nan nan nan nan nan nan nan nan nan nan 271 270 269 272 270 271 270 274 273 270 277 282 295 311 314 359 36 9 354 337 322 309 295 290 285 279 283 279 278 279 277 265 272 271 268 264 258 263 261 259 258
nan nan nan nan nan nan nan nan nan nan nan nan nan nan nan nan nan nan nan nan nan nan nan nan nan nan nan nan nan nan nan nan nan nan nan nan nan 256 241 nan nan nan nan nan 251 269 276 273 267 269 272 271 274 276 274 279 281 304 301 310 328 7 357 348 339 332 315 302 292 283 288 286 283 286 286 282 275 272 269 266 265 266 262 261 260 252
nan nan nan nan nan nan nan nan nan nan nan nan nan nan nan nan nan nan nan nan nan nan nan nan nan nan 193 nan 205 191 184 nan nan nan 216 212 nan 240 232 214 212 228 nan nan 256 265 268 263 265 262 267 273 275 270 272 279 281 284 286 298 309 334 339 331 330 322 319 314 310 292 292 289 286 281 283 277 270 263 261 264 269 269 267 261 258 259
nan nan nan nan nan nan nan nan nan nan nan nan nan nan nan nan nan nan nan nan nan nan nan nan 176 nan nan 214 210 207 201 204 194 187 205 208 203 208 216 209 205 nan 241 245 250 250 262 267 266 255 263 270 272 273 271 274 271 273 275 287 295 313 317 309 317 315 311 314 313 304 305 294 283 278 274 270 261 258 260 261 261 262 260 258 259 262
nan nan nan nan nan nan nan nan nan nan nan nan nan nan nan nan nan nan nan nan nan nan nan nan nan nan nan 210 209 203 203 211 206 209 205 207 209 218 220 214 207 195 nan 226 220 220 239 259 252 256 260 261 268 269 272 272 271 263 269 279 284 290 305 299 301 308 311 311 316 311 305 287 280 272 271 270 266 261 259 258 257 256 258 260 258 254
nan nan nan nan nan nan nan nan nan nan nan nan nan nan nan nan nan nan nan nan nan nan nan nan nan nan nan 207 209 208 204 210 210 216 215 206 211 219 219 214 209 207 208 216 218 216 216 220 239 245 250 249 258 262 268 261 260 261 267 273 280 282 288 285 294 296 305 314 314 308 303 292 281 277 273 273 272 267 261 257 257 257 257 262 264 254
nan nan nan nan nan nan nan nan nan nan nan nan nan nan nan nan nan nan nan nan nan nan nan nan nan nan 202 204 203 209 218 214 214 219 217 208 207 212 210 208 210 208 213 218 220 218 217 219 219 216 209 216 230 244 246 246 253 258 265 266 275 276 279 287 288 294 299 305 303 298 302 298 292 284 281 276 274 271 266 260 257 256 256 258 264 261
nan nan nan nan nan nan nan nan nan nan nan nan nan nan nan nan nan nan nan nan nan nan nan nan nan nan 209 203 203 204 217 218 217 222 221 214 204 204 203 202 205 208 211 215 218 218 217 217 220 220 212 200 206 209 215 225 241 250 255 260 269 276 279 281 284 293 287 289 287 291 304 306 301 297 290 281 277 276 271 263 258 258 258 258 266 263
nan nan nan nan nan nan nan nan nan nan nan nan nan nan nan nan nan nan nan nan nan nan nan nan nan 209 209 207 206 207 207 216 219 215 217 215 210 205 202 205 205 206 207 212 213 213 211 212 214 216 221 222 211 208 210 204 212 231 240 249 258 263 271 274 284 280 273 274 284 290 300 304 307 306 300 293 285 277 273 269 263 262 262 261 260 263
272 nan nan nan nan nan nan nan nan nan nan nan nan nan nan nan nan nan nan nan nan nan nan nan nan 214 208 208 206 202 206 204 208 215 214 nan nan 209 nan nan 209 207 nan 209 210 208 209 207 211 212 209 209 217 216 214 220 225 228 236 233 243 254 258 260 267 268 268 269 277 284 294 301 307 309 306 298 289 282 282 280 275 268 262 259 258 261
nan nan nan 262 nan nan nan nan nan nan nan nan nan nan 215 nan nan 211 207 202 nan nan nan nan nan nan 213 215 210 nan nan 201 207 211 nan nan nan nan nan nan nan 209 nan nan nan nan nan 209 208 208 207 207 213 215 214 219 231 229 231 236 230 241 243 247 258 262 267 267 269 273 283 296 304 306 302 300 296 291 291 291 283 277 266 264 260 259
nan nan nan 246 nan nan nan nan nan nan nan nan nan 221 215 218 219 215 nan nan nan 209 209 nan nan nan nan nan 207 nan nan nan 211 211 211 205 nan nan nan nan nan nan nan nan nan nan nan nan nan 206 206 207 206 212 217 218 224 235 239 237 238 238 246 246 252 261 267 267 271 274 280 290 298 299 300 301 300 298 297 293 290 286 273 264 262 259
nan nan 236 nan nan nan nan nan nan nan nan nan nan 221 219 218 218 218 215 214 215 212 210 nan nan 199 202 205 nan nan nan nan nan nan nan 207 204 nan nan nan nan nan nan nan nan nan nan nan nan nan 207 208 208 208 213 220 229 231 240 257 246 245 255 257 255 264 272 278 280 277 280 285 293 293 297 300 302 304 300 293 289 284 274 270 265 263
nan 252 240 nan nan nan nan nan nan nan nan nan nan 217 219 220 220 220 nan 213 215 nan nan nan nan nan nan nan nan nan nan nan nan nan nan nan nan nan nan nan nan nan nan nan nan nan nan nan nan nan nan 206 207 207 209 213 224 234 232 244 251 260 263 271 270 274 279 286 286 283 280 278 282 286 291 295 306 304 293 284 279 283 279 278 274 272
nan nan 247 nan nan nan nan nan nan nan nan 224 223 nan nan nan 218 217 220 217 217 nan nan nan nan nan nan nan nan nan nan nan nan nan nan nan nan nan nan nan nan nan nan nan nan nan nan nan nan 206 206 207 208 209 206 210 218 227 236 246 254 259 257 261 275 283 287 289 288 281 275 272 273 279 286 293 298 295 287 286 281 278 273 279 276 269
nan 252 242 234 nan nan nan nan nan nan nan 226 216 nan nan nan nan 218 221 nan 216 210 210 nan nan nan nan nan nan nan nan nan nan nan nan nan nan nan nan nan nan nan nan nan nan nan nan nan nan 206 205 204 205 207 207 207 219 227 249 256 254 263 271 279 283 283 283 280 276 271 273 273 271 274 282 288 289 283 278 272 274 278 279 276 274 269
nan nan nan nan nan nan nan 233 nan nan 236 219 214 nan nan 208 212 nan nan 223 nan nan nan nan nan nan nan nan nan nan nan nan nan nan nan nan nan nan nan nan nan nan nan nan nan 203 206 208 207 205 202 203 203 204 207 211 215 228 242 258 261 265 274 275 272 269 266 270 276 275 275 273 272 276 275 278 280 283 277 276 276 279 277 279 274 268
nan nan nan nan nan nan nan 231 nan 240 233 nan nan nan nan nan nan nan nan nan nan nan nan nan nan nan nan nan nan nan nan nan nan nan nan nan nan nan nan nan nan nan nan 201 203 204 205 205 nan 201 199 201 202 203 206 209 215 231 240 253 263 267 267 268 267 264 263 270 273 274 273 274 267 270 269 272 273 278 280 274 274 272 278 277 270 269
nan nan nan nan nan nan nan nan nan nan nan nan nan nan nan 217 nan nan nan nan nan nan nan nan nan nan nan nan nan nan nan nan nan nan nan nan nan nan nan nan nan nan nan 201 201 201 202 203 203 201 198 199 200 205 206 205 210 228 239 255 266 269 262 264 267 267 266 267 266 263 267 265 267 265 265 271 277 283 283 276 273 270 270 271 267 267
nan nan nan nan nan nan nan nan nan nan nan nan nan nan nan nan nan nan nan nan nan nan nan nan nan nan nan nan nan nan nan nan nan nan nan nan nan nan nan nan nan 204 203 203 203 201 200 201 202 201 198 198 201 204 205 208 211 227 240 250 257 260 258 261 267 269 271 269 265 260 262 263 263 263 265 273 276 281 283 281 273 265 266 268 266 265
nan nan nan nan nan nan nan nan nan nan nan nan nan nan nan nan nan nan nan nan nan nan nan nan nan nan nan nan nan nan nan nan nan nan nan nan nan nan nan nan 200 202 203 203 202 201 200 201 199 200 197 198 200 203 206 208 214 224 240 247 251 255 257 262 267 271 272 272 265 258 258 260 258 261 265 271 276 280 283 283 275 265 263 266 263 261
nan nan nan nan nan nan nan nan nan nan nan nan nan nan nan nan nan nan nan nan nan nan nan nan nan nan nan nan nan nan nan nan nan nan nan nan nan nan nan nan 200 202 202 203 203 202 201 199 198 199 198 195 198 203 207 209 213 223 238 244 250 255 255 259 263 268 271 270 261 255 255 260 262 262 268 272 272 275 277 279 275 267 265 267 264 259
nan nan nan nan nan nan nan nan nan nan nan nan nan nan nan nan nan nan nan nan nan nan nan nan nan nan nan nan nan nan nan nan nan nan nan nan nan nan nan nan 202 202 203 202 202 203 204 202 199 196 195 194 198 204 206 210 213 230 240 245 249 253 254 258 261 263 264 265 258 252 252 258 257 260 265 268 268 271 272 273 271 268 266 267 267 263
nan nan nan nan nan nan nan nan nan nan nan nan nan nan nan nan nan nan nan nan nan nan nan nan nan nan nan nan nan nan nan nan nan nan nan nan nan nan nan nan 205 201 203 205 205 205 204 204 200 195 193 195 199 204 207 213 216 233 241 245 248 251 252 255 258 259 262 263 257 250 251 254 260 263 261 265 270 273 278 272 275 276 274 274 272 271
nan nan nan nan nan nan nan nan nan nan nan nan nan nan nan nan nan nan nan nan nan nan nan nan nan nan nan nan nan nan nan nan nan nan nan nan nan nan nan nan 206 203 203 203 204 204 207 204 201 197 193 193 198 202 208 213 217 223 244 244 243 246 250 252 255 256 259 260 257 254 248 252 253 257 259 263 268 267 260 266 279 276 269 270 266 264
nan nan nan nan nan nan nan nan nan nan nan nan nan nan nan nan nan nan nan nan nan nan nan nan nan nan nan nan nan nan nan nan nan nan nan nan nan nan nan nan 204 201 201 202 203 203 203 204 205 202 197 198 199 203 210 217 221 219 221 228 235 240 243 245 247 249 251 252 252 251 249 249 254 257 259 263 267 253 247 238 238 235 255 264 244 244
nan nan nan nan nan nan nan nan nan nan nan nan nan nan nan nan nan nan nan nan nan nan nan nan nan nan nan nan nan nan nan nan nan nan nan nan nan nan nan 203 200 199 200 201 199 199 200 202 205 203 199 200 202 209 215 220 221 221 222 227 226 223 223 227 233 236 240 245 246 247 249 249 249 253 253 260 260 256 251 247 240 235 234 236 242 245